Time,TemperatureF,DewpointF,PressureIn,WindDirection,WindDirectionDegrees,WindSpeedMPH,WindSpeedGustMPH,Humidity,HourlyPrecipIn,Conditions,Clouds,dailyrainin,SoftwareType,DateUTC
2013-06-01 00:00:00,66.7,65.5,30.01,SSW,200,0.0,0.0,96,0.00,,,0.00,Wunderground v.1.15,2013-06-01 04:00:00,
2013-06-01 00:05:00,66.6,65.4,30.01,SSE,152,0.0,1.0,96,0.00,,,0.00,Wunderground v.1.15,2013-06-01 04:05:00,
2013-06-01 00:10:00,66.6,65.4,30.01,SW,219,0.0,1.0,96,0.00,,,0.00,Wunderground v.1.15,2013-06-01 04:10:00,
2013-06-01 00:15:00,66.6,65.4,30.01,WSW,238,1.0,1.0,96,0.00,,,0.00,Wunderground v.1.15,2013-06-01 04:15:00,
2013-06-01 00:20:00,66.6,65.4,30.01,SW,236,1.0,1.0,96,0.00,,,0.00,Wunderground v.1.15,2013-06-01 04:20:00,
2013-06-01 00:30:00,66.4,65.2,30.01,SSW,207,0.0,1.0,96,0.00,,,0.00,Wunderground v.1.15,2013-06-01 04:30:00,
2013-06-01 00:35:00,66.4,65.2,30.01,WSW,241,1.0,1.0,96,0.00,,,0.00,Wunderground v.1.15,2013-06-01 04:35:00,
2013-06-01 00:40:00,66.4,65.2,30.01,SSE,158,1.0,1.0,96,0.00,,,0.00,Wunderground v.1.15,2013-06-01 04:40:00,
2013-06-01 00:45:00,66.3,65.1,30.00,South,189,1.0,2.0,96,0.00,,,0.00,Wunderground v.1.15,2013-06-01 04:45:00,
2013-06-01 00:55:00,66.3,65.1,30.01,SSW,201,1.0,1.0,96,0.00,,,0.00,Wunderground v.1.15,2013-06-01 04:55:00,
2013-06-01 01:00:00,66.2,65.0,30.00,SW,224,1.0,1.0,96,0.00,,,0.00,Wunderground v.1.15,2013-06-01 05:00:00,
2013-06-01 01:10:00,66.1,65.2,30.00,SW,225,0.0,0.0,97,0.00,,,0.00,Wunderground v.1.15,2013-06-01 05:10:00,
2013-06-01 01:15:00,66.1,65.2,30.00,SW,224,0.0,0.0,97,0.00,,,0.00,Wunderground v.1.15,2013-06-01 05:15:00,
2013-06-01 01:20:00,66.1,65.2,30.00,South,190,1.0,1.0,97,0.00,,,0.00,Wunderground v.1.15,2013-06-01 05:20:00,
2013-06-01 01:30:00,66.1,65.2,30.00,SSW,211,0.0,0.0,97,0.00,,,0.00,Wunderground v.1.15,2013-06-01 05:30:00,
2013-06-01 01:35:00,66.0,65.1,30.00,SSW,211,0.0,0.0,97,0.00,,,0.00,Wunderground v.1.15,2013-06-01 05:35:00,
2013-06-01 01:40:00,65.9,65.0,30.00,SSW,211,0.0,0.0,97,0.00,,,0.00,Wunderground v.1.15,2013-06-01 05:40:00,
2013-06-01 01:45:00,65.8,64.9,30.00,SSW,211,0.0,0.0,97,0.00,,,0.00,Wunderground v.1.15,2013-06-01 05:45:00,
2013-06-01 01:50:00,65.8,64.9,30.00,SSW,211,0.0,0.0,97,0.00,,,0.00,Wunderground v.1.15,2013-06-01 05:50:00,
2013-06-01 01:55:00,65.7,64.8,30.00,SSW,211,0.0,0.0,97,0.00,,,0.00,Wunderground v.1.15,2013-06-01 05:55:00,
2013-06-01 02:00:00,65.7,64.8,30.00,SSW,211,0.0,0.0,97,0.00,,,0.00,Wunderground v.1.15,2013-06-01 06:00:00,
2013-06-01 02:10:00,65.6,64.7,29.99,SSW,211,0.0,0.0,97,0.00,,,0.00,Wunderground v.1.15,2013-06-01 06:10:00,
2013-06-01 02:15:00,65.6,64.7,29.99,SSW,211,0.0,0.0,97,0.00,,,0.00,Wunderground v.1.15,2013-06-01 06:15:00,
2013-06-01 02:20:00,65.6,64.7,29.99,SSW,203,0.0,0.0,97,0.00,,,0.00,Wunderground v.1.15,2013-06-01 06:20:00,
2013-06-01 02:25:00,65.6,64.7,29.99,SSW,203,0.0,0.0,97,0.00,,,0.00,Wunderground v.1.15,2013-06-01 06:25:00,
2013-06-01 02:30:00,65.6,64.7,29.99,SSW,200,0.0,2.0,97,0.00,,,0.00,Wunderground v.1.15,2013-06-01 06:30:00,
2013-06-01 02:35:00,65.6,64.7,29.99,SW,214,1.0,2.0,97,0.00,,,0.00,Wunderground v.1.15,2013-06-01 06:35:00,
2013-06-01 02:40:00,65.7,64.8,29.99,SW,225,1.0,1.0,97,0.00,,,0.00,Wunderground v.1.15,2013-06-01 06:40:00,
2013-06-01 02:45:00,65.7,64.8,29.98,WSW,245,1.0,2.0,97,0.00,,,0.00,Wunderground v.1.15,2013-06-01 06:45:00,
2013-06-01 02:50:00,65.8,64.9,29.98,South,181,1.0,1.0,97,0.00,,,0.00,Wunderground v.1.15,2013-06-01 06:50:00,
2013-06-01 03:00:00,65.8,64.9,29.97,SSE,160,1.0,1.0,97,0.00,,,0.00,Wunderground v.1.15,2013-06-01 07:00:00,
2013-06-01 03:10:00,65.7,64.8,29.96,WSW,242,0.0,0.0,97,0.00,,,0.00,Wunderground v.1.15,2013-06-01 07:10:00,
2013-06-01 03:15:00,65.5,64.6,29.97,WSW,242,0.0,0.0,97,0.00,,,0.00,Wunderground v.1.15,2013-06-01 07:15:00,
2013-06-01 03:20:00,65.2,64.3,29.96,WSW,242,0.0,0.0,97,0.00,,,0.00,Wunderground v.1.15,2013-06-01 07:20:00,
2013-06-01 03:25:00,65.1,64.2,29.96,WSW,242,0.0,0.0,97,0.00,,,0.00,Wunderground v.1.15,2013-06-01 07:25:00,
2013-06-01 03:30:00,65.0,64.1,29.96,SW,222,0.0,1.0,97,0.00,,,0.00,Wunderground v.1.15,2013-06-01 07:30:00,
2013-06-01 03:35:00,65.1,64.2,29.96,SW,221,1.0,1.0,97,0.00,,,0.00,Wunderground v.1.15,2013-06-01 07:35:00,
2013-06-01 03:45:00,65.2,64.3,29.96,SSW,195,1.0,1.0,97,0.00,,,0.00,Wunderground v.1.15,2013-06-01 07:45:00,
2013-06-01 03:50:00,65.2,64.3,29.95,SW,236,1.0,2.0,97,0.00,,,0.00,Wunderground v.1.15,2013-06-01 07:50:00,
2013-06-01 04:00:00,65.2,64.3,29.95,WSW,238,2.0,2.0,97,0.00,,,0.00,Wunderground v.1.15,2013-06-01 08:00:00,
2013-06-01 04:10:00,65.3,64.4,29.96,WSW,245,2.0,3.0,97,0.00,,,0.00,Wunderground v.1.15,2013-06-01 08:10:00,
2013-06-01 04:15:00,65.4,64.5,29.96,SW,233,3.0,3.0,97,0.00,,,0.00,Wunderground v.1.15,2013-06-01 08:15:00,
2013-06-01 04:20:00,65.5,64.6,29.96,SW,225,2.0,2.0,97,0.00,,,0.00,Wunderground v.1.15,2013-06-01 08:20:00,
2013-06-01 04:30:00,65.6,64.7,29.96,WSW,248,2.0,2.0,97,0.00,,,0.00,Wunderground v.1.15,2013-06-01 08:30:00,
2013-06-01 04:35:00,65.7,64.8,29.96,SW,229,2.0,3.0,97,0.00,,,0.00,Wunderground v.1.15,2013-06-01 08:35:00,
2013-06-01 04:45:00,65.9,64.7,29.96,SW,214,1.0,1.0,96,0.00,,,0.00,Wunderground v.1.15,2013-06-01 08:45:00,
2013-06-01 04:50:00,65.9,64.7,29.96,WSW,248,1.0,1.0,96,0.00,,,0.00,Wunderground v.1.15,2013-06-01 08:50:00,
2013-06-01 04:55:00,65.9,64.7,29.96,SW,219,1.0,1.0,96,0.00,,,0.00,Wunderground v.1.15,2013-06-01 08:55:00,
2013-06-01 05:00:00,66.0,64.8,29.96,SW,225,1.0,1.0,96,0.00,,,0.00,Wunderground v.1.15,2013-06-01 09:00:00,
2013-06-01 05:10:00,65.7,64.5,29.97,SSW,196,0.0,0.0,96,0.00,,,0.00,Wunderground v.1.15,2013-06-01 09:10:00,
2013-06-01 05:15:00,65.6,64.4,29.97,SSW,196,0.0,0.0,96,0.00,,,0.00,Wunderground v.1.15,2013-06-01 09:15:00,
2013-06-01 05:20:00,65.6,64.4,29.97,WSW,250,0.0,1.0,96,0.00,,,0.00,Wunderground v.1.15,2013-06-01 09:20:00,
2013-06-01 05:30:00,65.7,64.5,29.97,SSW,201,0.0,2.0,96,0.00,,,0.00,Wunderground v.1.15,2013-06-01 09:30:00,
2013-06-01 05:35:00,65.8,64.6,29.97,SSW,196,0.0,2.0,96,0.00,,,0.00,Wunderground v.1.15,2013-06-01 09:35:00,
2013-06-01 05:50:00,65.8,64.9,29.97,SSW,199,0.0,0.0,97,0.00,,,0.00,Wunderground v.1.15,2013-06-01 09:50:00,
2013-06-01 05:55:00,66.0,65.1,29.97,SW,214,0.0,0.0,97,0.00,,,0.00,Wunderground v.1.15,2013-06-01 09:55:00,
2013-06-01 06:05:00,66.1,65.2,29.97,SW,214,0.0,0.0,97,0.00,,,0.00,Wunderground v.1.15,2013-06-01 10:05:00,
2013-06-01 06:10:00,66.2,65.3,29.97,SSE,149,0.0,1.0,97,0.00,,,0.01,Wunderground v.1.15,2013-06-01 10:10:00,
2013-06-01 06:15:00,66.4,65.5,29.97,South,191,1.0,1.0,97,0.00,,,0.01,Wunderground v.1.15,2013-06-01 10:15:00,
2013-06-01 06:20:00,66.5,65.3,29.96,SSW,199,1.0,1.0,96,0.00,,,0.01,Wunderground v.1.15,2013-06-01 10:20:00,
2013-06-01 06:30:00,66.5,65.3,29.96,SW,217,1.0,1.0,96,0.00,,,0.01,Wunderground v.1.15,2013-06-01 10:30:00,
2013-06-01 06:35:00,66.6,65.4,29.96,WSW,246,1.0,1.0,96,0.00,,,0.01,Wunderground v.1.15,2013-06-01 10:35:00,
2013-06-01 06:40:00,66.6,65.4,29.97,WSW,239,1.0,1.0,96,0.00,,,0.01,Wunderground v.1.15,2013-06-01 10:40:00,
2013-06-01 06:45:00,66.6,65.4,29.96,SSW,207,1.0,1.0,96,0.00,,,0.01,Wunderground v.1.15,2013-06-01 10:45:00,
2013-06-01 06:55:00,66.9,65.7,29.96,SSW,211,2.0,4.0,96,0.00,,,0.01,Wunderground v.1.15,2013-06-01 10:55:00,
2013-06-01 07:00:00,67.1,65.9,29.96,SW,217,2.0,3.0,96,0.00,,,0.01,Wunderground v.1.15,2013-06-01 11:00:00,
2013-06-01 07:10:00,67.4,66.2,29.97,SSW,196,3.0,7.0,96,0.00,,,0.01,Wunderground v.1.15,2013-06-01 11:10:00,
2013-06-01 07:15:00,67.8,66.3,29.96,SSW,199,4.0,7.0,95,0.00,,,0.01,Wunderground v.1.15,2013-06-01 11:15:00,
2013-06-01 07:20:00,68.1,66.6,29.96,WSW,248,4.0,5.0,95,0.00,,,0.01,Wunderground v.1.15,2013-06-01 11:20:00,
2013-06-01 07:25:00,68.5,66.7,29.96,SW,228,4.0,5.0,94,0.00,,,0.01,Wunderground v.1.15,2013-06-01 11:25:00,
2013-06-01 07:35:00,69.2,67.1,29.96,SSW,194,5.0,6.0,93,0.00,,,0.01,Wunderground v.1.15,2013-06-01 11:35:00,
2013-06-01 07:40:00,69.4,67.0,29.96,SSW,203,6.0,-999.0,92,0.00,,,0.01,Wunderground v.1.15,2013-06-01 11:40:00,
2013-06-01 07:45:00,69.7,67.3,29.96,SSW,203,6.0,-999.0,92,0.00,,,0.01,Wunderground v.1.15,2013-06-01 11:45:00,
2013-06-01 07:50:00,70.0,67.3,29.96,SSW,203,6.0,-999.0,91,0.00,,,0.01,Wunderground v.1.15,2013-06-01 11:50:00,
2013-06-01 07:55:00,70.2,67.4,29.95,SSW,203,6.0,-999.0,91,0.00,,,0.01,Wunderground v.1.15,2013-06-01 11:55:00,
2013-06-01 08:00:00,70.5,67.4,29.95,SSW,203,7.0,-999.0,90,0.00,,,0.01,Wunderground v.1.15,2013-06-01 12:00:00,
2013-06-01 08:05:00,70.8,67.7,29.95,SSW,203,6.0,-999.0,90,0.00,,,0.01,Wunderground v.1.15,2013-06-01 12:05:00,
2013-06-01 08:10:00,71.2,68.1,29.95,SSW,203,6.0,-999.0,90,0.00,,,0.01,Wunderground v.1.15,2013-06-01 12:10:00,
2013-06-01 08:15:00,71.5,68.1,29.95,SSW,203,6.0,-999.0,89,0.00,,,0.01,Wunderground v.1.15,2013-06-01 12:15:00,
2013-06-01 08:20:00,71.8,68.4,29.95,SSW,203,7.0,-999.0,89,0.00,,,0.01,Wunderground v.1.15,2013-06-01 12:20:00,
2013-06-01 08:25:00,72.2,68.1,29.95,SSW,203,6.0,-999.0,87,0.00,,,0.01,Wunderground v.1.15,2013-06-01 12:25:00,
2013-06-01 08:30:00,72.6,68.5,29.96,SSW,203,5.0,-999.0,87,0.00,,,0.01,Wunderground v.1.15,2013-06-01 12:30:00,
2013-06-01 08:35:00,73.0,68.9,29.96,SSW,203,6.0,-999.0,87,0.00,,,0.01,Wunderground v.1.15,2013-06-01 12:35:00,
2013-06-01 08:40:00,73.3,68.9,29.95,SSW,203,6.0,-999.0,86,0.00,,,0.01,Wunderground v.1.15,2013-06-01 12:40:00,
2013-06-01 08:45:00,73.7,68.6,29.95,SSW,203,9.0,-999.0,84,0.00,,,0.01,Wunderground v.1.15,2013-06-01 12:45:00,
2013-06-01 08:50:00,74.1,68.6,29.95,SSW,203,8.0,-999.0,83,0.00,,,0.01,Wunderground v.1.15,2013-06-01 12:50:00,
2013-06-01 08:55:00,74.5,68.6,29.95,SSW,203,9.0,-999.0,82,0.00,,,0.01,Wunderground v.1.15,2013-06-01 12:55:00,
2013-06-01 09:00:00,74.9,69.0,29.95,SSW,203,9.0,-999.0,82,0.00,,,0.01,Wunderground v.1.15,2013-06-01 13:00:00,
2013-06-01 09:05:00,74.9,68.7,29.95,SW,225,8.0,-999.0,81,0.00,,,0.01,Wunderground v.1.15,2013-06-01 13:05:00,
2013-06-01 09:10:00,74.9,68.7,29.95,SSW,203,9.0,-999.0,81,0.00,,,0.01,Wunderground v.1.15,2013-06-01 13:10:00,
2013-06-01 09:15:00,74.8,68.6,29.95,SW,225,8.0,-999.0,81,0.00,,,0.01,Wunderground v.1.15,2013-06-01 13:15:00,
2013-06-01 09:20:00,75.1,68.5,29.95,SSW,203,11.0,-999.0,80,0.00,,,0.01,Wunderground v.1.15,2013-06-01 13:20:00,
2013-06-01 09:25:00,75.1,68.9,29.94,SW,225,9.0,-999.0,81,0.00,,,0.01,Wunderground v.1.15,2013-06-01 13:25:00,
2013-06-01 09:30:00,75.1,68.5,29.94,SW,225,9.0,-999.0,80,0.00,,,0.01,Wunderground v.1.15,2013-06-01 13:30:00,
2013-06-01 09:43:00,75.1,68.5,29.94,SW,225,10.0,-999.0,80,0.00,,,0.01,Wunderground v.1.15,2013-06-01 13:43:00,
2013-06-01 09:50:00,75.6,68.6,29.93,SW,214,10.0,10.0,79,0.00,,,0.01,Wunderground v.1.15,2013-06-01 13:50:00,
2013-06-01 09:55:00,75.8,68.8,29.93,SW,218,11.0,11.0,79,0.00,,,0.01,Wunderground v.1.15,2013-06-01 13:55:00,
2013-06-01 10:00:00,76.4,69.4,29.93,SSW,197,10.0,11.0,79,0.00,,,0.01,Wunderground v.1.15,2013-06-01 14:00:00,
2013-06-01 10:10:00,76.8,69.0,29.93,SSW,211,11.0,12.0,77,0.00,,,0.01,Wunderground v.1.15,2013-06-01 14:10:00,
2013-06-01 10:15:00,77.1,69.3,29.93,South,188,10.0,16.0,77,0.00,,,0.01,Wunderground v.1.15,2013-06-01 14:15:00,
2013-06-01 10:20:00,77.4,69.2,29.93,WSW,256,10.0,10.0,76,0.00,,,0.01,Wunderground v.1.15,2013-06-01 14:20:00,
2013-06-01 10:25:00,77.4,69.2,29.93,SSW,201,10.0,10.0,76,0.00,,,0.01,Wunderground v.1.15,2013-06-01 14:25:00,
2013-06-01 10:30:00,77.8,70.0,29.93,SSW,194,9.0,9.0,77,0.00,,,0.01,Wunderground v.1.15,2013-06-01 14:30:00,
2013-06-01 10:35:00,78.2,70.0,29.93,WSW,239,10.0,10.0,76,0.00,,,0.01,Wunderground v.1.15,2013-06-01 14:35:00,
2013-06-01 10:40:00,78.4,69.4,29.93,WSW,239,11.0,11.0,74,0.00,,,0.01,Wunderground v.1.15,2013-06-01 14:40:00,
2013-06-01 10:45:00,78.2,68.8,29.92,SSW,193,12.0,15.0,73,0.00,,,0.01,Wunderground v.1.15,2013-06-01 14:45:00,
2013-06-01 10:50:00,78.5,69.5,29.92,SSW,203,12.0,13.0,74,0.00,,,0.01,Wunderground v.1.15,2013-06-01 14:50:00,
2013-06-01 11:00:00,78.9,69.1,29.93,SW,221,11.0,15.0,72,0.00,,,0.01,Wunderground v.1.15,2013-06-01 15:00:00,
2013-06-01 11:10:00,78.2,68.8,29.92,WSW,241,13.0,15.0,73,0.00,,,0.01,Wunderground v.1.15,2013-06-01 15:10:00,
2013-06-01 11:15:00,78.1,69.1,29.92,SSE,160,12.0,15.0,74,0.00,,,0.01,Wunderground v.1.15,2013-06-01 15:15:00,
2013-06-01 11:20:00,78.1,68.7,29.92,West,260,11.0,11.0,73,0.00,,,0.01,Wunderground v.1.15,2013-06-01 15:20:00,
2013-06-01 11:25:00,77.9,68.9,29.93,SW,219,10.0,11.0,74,0.00,,,0.01,Wunderground v.1.15,2013-06-01 15:25:00,
2013-06-01 11:30:00,77.9,68.9,29.92,West,269,10.0,10.0,74,0.00,,,0.01,Wunderground v.1.15,2013-06-01 15:30:00,
2013-06-01 11:40:00,77.8,68.8,29.92,SSW,204,11.0,12.0,74,0.00,,,0.01,Wunderground v.1.15,2013-06-01 15:40:00,
2013-06-01 11:45:00,77.7,68.4,29.92,SW,214,11.0,14.0,73,0.00,,,0.01,Wunderground v.1.15,2013-06-01 15:45:00,
2013-06-01 11:50:00,77.6,69.0,29.92,SSW,193,11.0,15.0,75,0.00,,,0.01,Wunderground v.1.15,2013-06-01 15:50:00,
2013-06-01 11:55:00,77.7,68.7,29.92,SSW,203,10.0,15.0,74,0.00,,,0.01,Wunderground v.1.15,2013-06-01 15:55:00,
2013-06-01 12:00:00,77.9,68.9,29.92,SW,217,10.0,10.0,74,0.00,,,0.01,Wunderground v.1.15,2013-06-01 16:00:00,
2013-06-01 12:10:00,78.4,69.4,29.92,SSW,212,11.0,11.0,74,0.00,,,0.01,Wunderground v.1.15,2013-06-01 16:10:00,
2013-06-01 12:15:00,78.6,69.6,29.92,SSW,194,11.0,15.0,74,0.00,,,0.01,Wunderground v.1.15,2013-06-01 16:15:00,
2013-06-01 12:20:00,78.9,69.5,29.92,SW,214,13.0,17.0,73,0.00,,,0.01,Wunderground v.1.15,2013-06-01 16:20:00,
2013-06-01 12:25:00,79.4,70.0,29.92,SSW,209,13.0,17.0,73,0.00,,,0.01,Wunderground v.1.15,2013-06-01 16:25:00,
2013-06-01 12:30:00,80.0,69.7,29.92,SW,236,14.0,14.0,71,0.00,,,0.01,Wunderground v.1.15,2013-06-01 16:30:00,
2013-06-01 12:35:00,80.3,69.6,29.92,SSW,209,14.0,14.0,70,0.00,,,0.01,Wunderground v.1.15,2013-06-01 16:35:00,
2013-06-01 12:40:00,80.5,69.8,29.92,South,184,13.0,15.0,70,0.00,,,0.01,Wunderground v.1.15,2013-06-01 16:40:00,
2013-06-01 12:45:00,80.7,70.4,29.92,SW,236,14.0,17.0,71,0.00,,,0.01,Wunderground v.1.15,2013-06-01 16:45:00,
2013-06-01 12:55:00,80.8,70.1,29.91,SSW,196,14.0,14.0,70,0.00,,,0.01,Wunderground v.1.15,2013-06-01 16:55:00,
2013-06-01 13:00:00,80.9,70.2,29.92,SW,219,16.0,19.0,70,0.00,,,0.01,Wunderground v.1.15,2013-06-01 17:00:00,
2013-06-01 13:10:00,81.0,70.3,29.91,SSE,151,14.0,14.0,70,0.00,,,0.01,Wunderground v.1.15,2013-06-01 17:10:00,
2013-06-01 13:20:00,82.0,70.8,29.91,SSW,211,13.0,13.0,69,0.00,,,0.01,Wunderground v.1.15,2013-06-01 17:20:00,
2013-06-01 13:25:00,82.0,70.8,29.91,WSW,239,14.0,14.0,69,0.00,,,0.01,Wunderground v.1.15,2013-06-01 17:25:00,
2013-06-01 13:30:00,81.8,70.6,29.91,SSW,210,14.0,14.0,69,0.00,,,0.01,Wunderground v.1.15,2013-06-01 17:30:00,
2013-06-01 13:35:00,82.1,70.9,29.91,SW,235,12.0,14.0,69,0.00,,,0.01,Wunderground v.1.15,2013-06-01 17:35:00,
2013-06-01 13:40:00,82.0,70.8,29.91,SSW,204,12.0,19.0,69,0.00,,,0.01,Wunderground v.1.15,2013-06-01 17:40:00,
2013-06-01 13:45:00,82.2,70.1,29.91,SW,217,12.0,19.0,67,0.00,,,0.01,Wunderground v.1.15,2013-06-01 17:45:00,
2013-06-01 13:50:00,82.2,70.6,29.91,South,183,13.0,23.0,68,0.00,,,0.01,Wunderground v.1.15,2013-06-01 17:50:00,
2013-06-01 13:55:00,82.3,70.7,29.91,SSW,201,13.0,23.0,68,0.00,,,0.01,Wunderground v.1.15,2013-06-01 17:55:00,
2013-06-01 14:00:00,82.9,70.8,29.91,SSW,193,14.0,17.0,67,0.00,,,0.01,Wunderground v.1.15,2013-06-01 18:00:00,
2013-06-01 14:10:00,82.7,71.1,29.91,SSW,205,14.0,14.0,68,0.00,,,0.01,Wunderground v.1.15,2013-06-01 18:10:00,
2013-06-01 14:15:00,82.7,71.1,29.91,SSW,193,14.0,18.0,68,0.00,,,0.01,Wunderground v.1.15,2013-06-01 18:15:00,
2013-06-01 14:20:00,82.8,70.3,29.91,SSW,201,15.0,15.0,66,0.00,,,0.01,Wunderground v.1.15,2013-06-01 18:20:00,
2013-06-01 14:25:00,82.8,70.7,29.90,SSW,202,14.0,15.0,67,0.00,,,0.01,Wunderground v.1.15,2013-06-01 18:25:00,
2013-06-01 14:30:00,82.8,70.7,29.90,SSW,212,13.0,13.0,67,0.00,,,0.01,Wunderground v.1.15,2013-06-01 18:30:00,
2013-06-01 14:35:00,82.8,70.7,29.90,SSW,203,13.0,13.0,67,0.00,,,0.01,Wunderground v.1.15,2013-06-01 18:35:00,
2013-06-01 14:45:00,82.2,71.0,29.90,South,191,12.0,17.0,69,0.00,,,0.01,Wunderground v.1.15,2013-06-01 18:45:00,
2013-06-01 14:50:00,81.9,70.3,29.90,SW,222,11.0,11.0,68,0.00,,,0.01,Wunderground v.1.15,2013-06-01 18:50:00,
2013-06-01 14:55:00,81.8,70.2,29.90,South,191,13.0,13.0,68,0.00,,,0.01,Wunderground v.1.15,2013-06-01 18:55:00,
2013-06-01 15:05:00,82.0,70.8,29.89,SSW,208,11.0,13.0,69,0.00,,,0.01,Wunderground v.1.15,2013-06-01 19:05:00,
2013-06-01 15:10:00,82.3,71.1,29.89,SW,226,11.0,14.0,69,0.00,,,0.01,Wunderground v.1.15,2013-06-01 19:10:00,
2013-06-01 15:20:00,82.7,71.1,29.89,SW,218,12.0,15.0,68,0.00,,,0.01,Wunderground v.1.15,2013-06-01 19:20:00,
2013-06-01 15:25:00,83.3,71.6,29.89,South,190,11.0,15.0,68,0.00,,,0.01,Wunderground v.1.15,2013-06-01 19:25:00,
2013-06-01 15:30:00,83.4,71.7,29.89,WSW,242,11.0,11.0,68,0.00,,,0.01,Wunderground v.1.15,2013-06-01 19:30:00,
2013-06-01 15:35:00,83.4,70.8,29.88,WSW,250,13.0,13.0,66,0.00,,,0.01,Wunderground v.1.15,2013-06-01 19:35:00,
2013-06-01 15:45:00,82.7,70.6,29.89,SSW,208,13.0,15.0,67,0.00,,,0.01,Wunderground v.1.15,2013-06-01 19:45:00,
2013-06-01 15:50:00,82.4,70.8,29.89,WSW,238,12.0,12.0,68,0.00,,,0.01,Wunderground v.1.15,2013-06-01 19:50:00,
2013-06-01 15:55:00,82.0,70.8,29.88,SSW,196,12.0,12.0,69,0.00,,,0.01,Wunderground v.1.15,2013-06-01 19:55:00,
2013-06-01 16:00:00,82.3,71.5,29.88,SSW,203,10.0,12.0,70,0.00,,,0.01,Wunderground v.1.15,2013-06-01 20:00:00,
2013-06-01 16:10:00,82.5,71.3,29.88,SSW,200,12.0,14.0,69,0.00,,,0.01,Wunderground v.1.15,2013-06-01 20:10:00,
2013-06-01 16:15:00,82.6,71.4,29.88,SSW,203,11.0,17.0,69,0.00,,,0.01,Wunderground v.1.15,2013-06-01 20:15:00,
2013-06-01 16:25:00,82.6,71.0,29.88,SW,217,12.0,19.0,68,0.00,,,0.01,Wunderground v.1.15,2013-06-01 20:25:00,
2013-06-01 16:35:00,82.2,70.6,29.88,SW,219,11.0,13.0,68,0.00,,,0.01,Wunderground v.1.15,2013-06-01 20:35:00,
2013-06-01 16:40:00,82.0,70.8,29.88,SW,226,9.0,9.0,69,0.00,,,0.01,Wunderground v.1.15,2013-06-01 20:40:00,
2013-06-01 16:45:00,81.7,70.1,29.89,WSW,242,11.0,11.0,68,0.00,,,0.01,Wunderground v.1.15,2013-06-01 20:45:00,
2013-06-01 16:50:00,81.4,69.8,29.88,South,173,12.0,12.0,68,0.00,,,0.01,Wunderground v.1.15,2013-06-01 20:50:00,
2013-06-01 16:55:00,81.5,70.3,29.88,SSW,205,12.0,12.0,69,0.00,,,0.01,Wunderground v.1.15,2013-06-01 20:55:00,
2013-06-01 17:00:00,81.7,70.5,29.88,SSW,204,10.0,11.0,69,0.00,,,0.01,Wunderground v.1.15,2013-06-01 21:00:00,
2013-06-01 17:10:00,82.1,70.5,29.87,SE,138,11.0,13.0,68,0.00,,,0.01,Wunderground v.1.15,2013-06-01 21:10:00,
2013-06-01 17:20:00,82.9,71.3,29.87,South,179,11.0,11.0,68,0.00,,,0.01,Wunderground v.1.15,2013-06-01 21:20:00,
2013-06-01 17:25:00,83.5,71.4,29.86,SW,214,10.0,11.0,67,0.00,,,0.01,Wunderground v.1.15,2013-06-01 21:25:00,
2013-06-01 17:35:00,83.5,71.4,29.86,SSW,212,9.0,9.0,67,0.00,,,0.01,Wunderground v.1.15,2013-06-01 21:35:00,
2013-06-01 17:40:00,83.1,71.9,29.86,South,169,10.0,14.0,69,0.00,,,0.01,Wunderground v.1.15,2013-06-01 21:40:00,
2013-06-01 17:45:00,83.6,71.5,29.86,WSW,257,10.0,14.0,67,0.00,,,0.01,Wunderground v.1.15,2013-06-01 21:45:00,
2013-06-01 17:50:00,84.0,71.9,29.86,SW,222,10.0,12.0,67,0.00,,,0.01,Wunderground v.1.15,2013-06-01 21:50:00,
2013-06-01 18:00:00,84.0,71.9,29.85,WSW,245,10.0,10.0,67,0.00,,,0.01,Wunderground v.1.15,2013-06-01 22:00:00,
2013-06-01 18:10:00,83.1,71.9,29.85,WSW,237,9.0,9.0,69,0.00,,,0.01,Wunderground v.1.15,2013-06-01 22:10:00,
2013-06-01 18:15:00,82.5,71.3,29.85,SW,229,8.0,12.0,69,0.00,,,0.01,Wunderground v.1.15,2013-06-01 22:15:00,
2013-06-01 18:20:00,82.2,70.6,29.85,SSW,197,9.0,10.0,68,0.00,,,0.01,Wunderground v.1.15,2013-06-01 22:20:00,
2013-06-01 18:25:00,82.3,69.4,29.84,SW,232,11.0,12.0,65,0.00,,,0.01,Wunderground v.1.15,2013-06-01 22:25:00,
2013-06-01 18:35:00,83.0,70.5,29.84,SSW,198,10.0,11.0,66,0.00,,,0.01,Wunderground v.1.15,2013-06-01 22:35:00,
2013-06-01 18:45:00,83.5,70.5,29.84,SSW,208,8.0,10.0,65,0.00,,,0.01,Wunderground v.1.15,2013-06-01 22:45:00,
2013-06-01 18:50:00,83.7,69.8,29.84,SW,222,9.0,9.0,63,0.00,,,0.01,Wunderground v.1.15,2013-06-01 22:50:00,
2013-06-01 18:55:00,83.9,70.4,29.84,South,186,10.0,10.0,64,0.00,,,0.01,Wunderground v.1.15,2013-06-01 22:55:00,
2013-06-01 19:00:00,83.4,69.5,29.84,SW,228,9.0,17.0,63,0.00,,,0.01,Wunderground v.1.15,2013-06-01 23:00:00,
2013-06-01 19:10:00,82.4,69.9,29.85,SSW,211,10.0,15.0,66,0.00,,,0.01,Wunderground v.1.15,2013-06-01 23:10:00,
2013-06-01 19:15:00,82.0,69.5,29.85,SSW,209,10.0,15.0,66,0.00,,,0.01,Wunderground v.1.15,2013-06-01 23:15:00,
2013-06-01 19:20:00,81.6,69.6,29.84,SSW,203,11.0,11.0,67,0.00,,,0.01,Wunderground v.1.15,2013-06-01 23:20:00,
2013-06-01 19:30:00,81.2,69.6,29.84,SW,217,10.0,10.0,68,0.00,,,0.01,Wunderground v.1.15,2013-06-01 23:30:00,
2013-06-01 19:35:00,81.1,69.5,29.84,SSW,200,9.0,10.0,68,0.00,,,0.01,Wunderground v.1.15,2013-06-01 23:35:00,
2013-06-01 19:40:00,81.0,69.9,29.84,SW,215,8.0,11.0,69,0.00,,,0.01,Wunderground v.1.15,2013-06-01 23:40:00,
2013-06-01 19:45:00,80.8,69.7,29.84,SSE,168,8.0,11.0,69,0.00,,,0.01,Wunderground v.1.15,2013-06-01 23:45:00,
2013-06-01 19:50:00,80.7,69.6,29.84,SSW,204,8.0,8.0,69,0.00,,,0.01,Wunderground v.1.15,2013-06-01 23:50:00,
2013-06-01 19:55:00,80.7,69.2,29.84,SW,226,10.0,10.0,68,0.00,,,0.01,Wunderground v.1.15,2013-06-01 23:55:00,
2013-06-01 20:00:00,80.5,69.0,29.84,SSW,204,10.0,12.0,68,0.00,,,0.01,Wunderground v.1.15,2013-06-02 00:00:00,
2013-06-01 20:10:00,80.2,69.1,29.84,SSW,204,10.0,10.0,69,0.00,,,0.01,Wunderground v.1.15,2013-06-02 00:10:00,
2013-06-01 20:15:00,80.1,69.0,29.84,SSW,204,10.0,11.0,69,0.00,,,0.01,Wunderground v.1.15,2013-06-02 00:15:00,
2013-06-01 20:20:00,79.9,68.8,29.84,SSW,199,10.0,13.0,69,0.00,,,0.01,Wunderground v.1.15,2013-06-02 00:20:00,
2013-06-01 20:25:00,79.9,69.2,29.83,SSW,196,10.0,13.0,70,0.00,,,0.01,Wunderground v.1.15,2013-06-02 00:25:00,
2013-06-01 20:30:00,79.7,69.0,29.83,SSW,197,9.0,9.0,70,0.00,,,0.01,Wunderground v.1.15,2013-06-02 00:30:00,
2013-06-01 20:35:00,79.6,69.0,29.83,SW,214,9.0,9.0,70,0.00,,,0.01,Wunderground v.1.15,2013-06-02 00:35:00,
2013-06-01 20:40:00,79.4,68.8,29.83,SSE,160,8.0,8.0,70,0.00,,,0.01,Wunderground v.1.15,2013-06-02 00:40:00,
2013-06-01 20:45:00,79.2,69.0,29.83,South,186,8.0,8.0,71,0.00,,,0.01,Wunderground v.1.15,2013-06-02 00:45:00,
2013-06-01 20:55:00,78.8,69.0,29.83,SSW,201,7.0,7.0,72,0.00,,,0.01,Wunderground v.1.15,2013-06-02 00:55:00,
2013-06-01 21:00:00,78.5,68.7,29.83,SSW,207,6.0,7.0,72,0.00,,,0.01,Wunderground v.1.15,2013-06-02 01:00:00,
2013-06-01 21:10:00,78.3,68.5,29.83,SSE,162,6.0,8.0,72,0.00,,,0.01,Wunderground v.1.15,2013-06-02 01:10:00,
2013-06-01 21:15:00,78.2,68.8,29.83,South,188,6.0,8.0,73,0.00,,,0.01,Wunderground v.1.15,2013-06-02 01:15:00,
2013-06-01 21:20:00,78.0,68.6,29.83,SSW,205,6.0,6.0,73,0.00,,,0.01,Wunderground v.1.15,2013-06-02 01:20:00,
2013-06-01 21:25:00,77.9,68.9,29.83,SSW,198,6.0,6.0,74,0.00,,,0.01,Wunderground v.1.15,2013-06-02 01:25:00,
2013-06-01 21:35:00,77.8,68.8,29.82,South,180,7.0,9.0,74,0.00,,,0.01,Wunderground v.1.15,2013-06-02 01:35:00,
2013-06-01 21:40:00,77.8,69.2,29.82,SSW,193,6.0,6.0,75,0.00,,,0.01,Wunderground v.1.15,2013-06-02 01:40:00,
2013-06-01 21:50:00,77.6,69.0,29.82,SW,221,6.0,6.0,75,0.00,,,0.01,Wunderground v.1.15,2013-06-02 01:50:00,
2013-06-01 21:55:00,77.4,69.2,29.82,SSW,208,6.0,6.0,76,0.00,,,0.01,Wunderground v.1.15,2013-06-02 01:55:00,
2013-06-01 22:00:00,77.2,69.0,29.82,SSW,204,5.0,5.0,76,0.00,,,0.01,Wunderground v.1.15,2013-06-02 02:00:00,
2013-06-01 22:10:00,77.0,69.2,29.82,SSW,194,4.0,4.0,77,0.00,,,0.01,Wunderground v.1.15,2013-06-02 02:10:00,
2013-06-01 22:15:00,76.8,69.0,29.81,South,186,4.0,5.0,77,0.00,,,0.01,Wunderground v.1.15,2013-06-02 02:15:00,
2013-06-01 22:20:00,76.8,69.0,29.81,SW,228,4.0,4.0,77,0.00,,,0.01,Wunderground v.1.15,2013-06-02 02:20:00,
2013-06-01 22:25:00,76.6,68.8,29.81,SE,145,3.0,4.0,77,0.00,,,0.01,Wunderground v.1.15,2013-06-02 02:25:00,
2013-06-01 22:30:00,76.5,68.7,29.80,SSW,206,3.0,4.0,77,0.00,,,0.01,Wunderground v.1.15,2013-06-02 02:30:00,
2013-06-01 22:35:00,76.3,68.9,29.80,SSW,204,3.0,4.0,78,0.00,,,0.01,Wunderground v.1.15,2013-06-02 02:35:00,
2013-06-01 22:45:00,75.8,68.8,29.81,WSW,246,1.0,2.0,79,0.00,,,0.01,Wunderground v.1.15,2013-06-02 02:45:00,
2013-06-01 22:50:00,75.7,68.7,29.80,SSW,204,2.0,2.0,79,0.00,,,0.01,Wunderground v.1.15,2013-06-02 02:50:00,
2013-06-01 23:00:00,75.6,68.6,29.79,SSW,205,2.0,4.0,79,0.00,,,0.01,Wunderground v.1.15,2013-06-02 03:00:00,
2013-06-01 23:10:00,75.6,69.0,29.81,SW,221,3.0,6.0,80,0.00,,,0.01,Wunderground v.1.15,2013-06-02 03:10:00,
2013-06-01 23:15:00,75.8,68.8,29.81,SSW,212,6.0,9.0,79,0.00,,,0.01,Wunderground v.1.15,2013-06-02 03:15:00,
2013-06-01 23:20:00,75.7,69.1,29.82,South,183,9.0,9.0,80,0.00,,,0.01,Wunderground v.1.15,2013-06-02 03:20:00,
2013-06-01 23:25:00,75.1,69.2,29.81,South,173,11.0,11.0,82,0.00,,,0.01,Wunderground v.1.15,2013-06-02 03:25:00,
2013-06-01 23:30:00,74.6,69.4,29.81,SSE,163,9.0,9.0,84,0.00,,,0.01,Wunderground v.1.15,2013-06-02 03:30:00,
2013-06-01 23:40:00,74.0,68.9,29.80,South,172,7.0,7.0,84,0.00,,,0.01,Wunderground v.1.15,2013-06-02 03:40:00,
2013-06-01 23:45:00,74.0,68.9,29.80,SW,229,8.0,8.0,84,0.00,,,0.01,Wunderground v.1.15,2013-06-02 03:45:00,
2013-06-01 23:50:00,74.1,69.0,29.80,SSW,200,9.0,9.0,84,0.00,,,0.01,Wunderground v.1.15,2013-06-02 03:50:00,
2013-06-01 23:55:00,74.1,68.6,29.78,SSW,204,8.0,12.0,83,0.00,,,0.01,Wunderground v.1.15,2013-06-02 03:55:00,